This is the latest recevied weather packets stored in our database for station/object W8BS. If no packets are shown the sender has not sent any weather packets the latest 10 day(s).
| Time | Temp. | Humidity | Pressure | Rain* | Wind** | Luminosity | Snow |
|---|---|---|---|---|---|---|---|
| 1777924952 | 20.56° C | 48% | 1010.3 hPa | 0 mm | - | 167 W/m² | - |
| 1777924649 | 21.67° C | 47% | 1010 hPa | 0 mm | - | 349 W/m² | - |
| 1777924345 | 21.11° C | 48% | 1010 hPa | 0 mm | - | 495 W/m² | - |
| 1777924042 | 21.11° C | 49% | 1010 hPa | 0 mm | - | 262 W/m² | - |
| 1777923738 | 20.56° C | 48% | 1010.1 hPa | 0 mm | - | 376 W/m² | - |
| 1777923435 | 21.11° C | 47% | 1010.1 hPa | 0 mm | - | 294 W/m² | - |
| 1777923132 | 20.56° C | 48% | 1010.1 hPa | 0 mm | - | 671 W/m² | - |
| 1777922830 | 21.11° C | 48% | 1010.1 hPa | 0 mm | - | 653 W/m² | - |
| 1777922528 | 21.11° C | 47% | 1010.3 hPa | 0 mm | - | 342 W/m² | - |
| 1777922227 | 21.11° C | 48% | 1010.4 hPa | 0 mm | - | 669 W/m² | - |
| 1777921923 | 20.56° C | 50% | 1010.4 hPa | 0 mm | - | 681 W/m² | - |
| 1777921618 | 21.11° C | 48% | 1010.4 hPa | 0 mm | - | 704 W/m² | - |
| 1777921315 | 21.67° C | 47% | 1010.6 hPa | 0 mm | - | 665 W/m² | - |
| 1777921011 | 20.56° C | 49% | 1010.3 hPa | 0 mm | - | 639 W/m² | - |
| 1777920708 | 20° C | 49% | 1010.6 hPa | 0 mm | - | 665 W/m² | - |
| 1777920404 | 21.11° C | 49% | 1010.7 hPa | 0 mm | - | 672 W/m² | - |
| 1777920099 | 21.11° C | 49% | 1010.6 hPa | 0 mm | - | 725 W/m² | - |
| 1777919796 | 20.56° C | 49% | 1010.9 hPa | 0 mm | - | 782 W/m² | - |
| 1777919494 | 20.56° C | 50% | 1011 hPa | 0 mm | - | 704 W/m² | - |
| 1777919191 | 20° C | 52% | 1011 hPa | 0 mm | - | 760 W/m² | - |
| 1777918889 | 20° C | 53% | 1011.2 hPa | 0 mm | - | 187 W/m² | - |
| 1777918586 | 20° C | 53% | 1011.1 hPa | 0 mm | - | 767 W/m² | - |
| 1777918283 | 19.44° C | 53% | 1011.3 hPa | 0 mm | - | 196 W/m² | - |
| 1777917983 | 20° C | 52% | 1011.2 hPa | 0 mm | - | 726 W/m² | - |
| 1777917681 | 20.56° C | 53% | 1011.3 hPa | 0 mm | - | 722 W/m² | - |
* Rain latest hour (hover to see other rain measurements)
** Current wind speed in m/s (hover to see current wind gust speed)